Regional Weather Roundup
Issued by NWS

Home | Current Version | Previous Version | Text Only | Print | Product List | Glossary On
Versions: 1 2 3 4 5 6 7 8 9 10 11 12 13 14 15 16 17 18 19 20 21 22 23 24 25 26 27 28 29 30 31 32 33 34 35 36 37 38 39 40 41 42 43 44 45 46 47 48 49 50
000
ASCA42 TJSJ 241710
RWRPR
PUERTO RICO/U.S. VIRGIN ISLANDS HOURLY WEATHER ROUNDUP
NATIONAL WEATHER SERVICE SAN JUAN PR
100 PM AST THU MAY 24 2018

PRZ001>002-007>008-010-241800-
PUERTO RICO

CITY           SKY/WX    TMP DP  RH WIND       PRES   REMARKS
SAN JUAN LMM   MOSUNNY   84  75  74 NE21      30.05F HX  92
AGUADILLA      PTSUNNY   84  73  70 E16       30.06F HX  91
CEIBA          MOSUNNY   86  75  70 E14       30.08  HX  95
$$

VIZ001>002-241800-
U.S. VIRGIN ISLANDS

CITY           SKY/WX    TMP DP  RH WIND       PRES   REMARKS
CHARLOTTE AMA  SUNNY     64 N/A N/A SE17      30.06F
CHRISTIANSTED  MOSUNNY   88  75  66 E18       30.07F HX  97
$$

HOURLY WEATHER ROUNDUP FOR THE NEWS MEDIA

CITY           SKY/WX    TMP DP  RH WIND       PRES   REMARKS
ORLANDO        FAIR      88  69  53 VRB5      30.09F HX  92
NEW YORK       FAIR      79  36  21 N9        30.13F
NEWARK         FAIR      80  39  23 VRB6G17   30.12F
CHICAGO        FAIR      82  55  39 S7        30.16F
HARTFORD       FAIR      64  52  64 S13       30.11R
BOSTON         FAIR      60  53  77 E16       30.12S
DALLAS         PTSUNNY   86  68  54 S10       30.08S
PHILADELPHIA   FAIR      79  43  27 N8        30.15F
LOS ANGELES    CLOUDY    61  55  81 W7        30.09S
WASHINGTON DC  FAIR      80  50  34 N8        30.20S


USA.gov is the U.S. government's official web portal to all federal, state and local government web resources and services.